Location: Sungai Jaoh
(2.9167°N, 113.9167°E)
Time: 07:09:57
(UTC+00:00)

Cosmos 1408 Rocket - Pass Details

Date: 30 November 2020
Orbit: 600 x 631 km, 82.6° (Epoch: 17 January)

Event Time Altitude Azimuth Distance (km) Brightness Sun altitude
Rises 21:10:42 0° 196° (SSW) 2,911 7.1 -15.6°
Reaches altitude 10° 21:13:01 10° 203° (SSW) 2,005 6.2 -15.1°
Maximum altitude 21:17:13 42° 274° (W) 900 3.9 -14.1°
Drops below altitude 10° 21:21:26 10° 345° (NNW) 2,002 5.8 -13.1°
Sets 21:23:45 0° 352° (N) 2,907 6.7 -12.6°
